[[{"header":{"parameterUnit":"m.s-1","parameterCategory":1,"la1":30.2992,"la2":30.254,"lo1":-89.0895,"lo2":-89.0443,"dy":0.0025,"dx":0.0025,"nx":19,"ny":19,"refTime":"2026-03-09T09:00:00:Z","depth":0,"parameterNumber":2,"parameterNumberName":"U-component_of_WINDS"},"data":[0,0,0,-0.2425,-0.2423,-0.2339,-0.2339,-0.2246,-0.2245,0,0,0,0,0,0,0,0,0,0,0,-0.2458,-0.2458,-0.2425,-0.2423,-0.2339,-0.2339,-0.2246,-0.2245,0,0,0,0,0,0,0,0,0,0,0,-0.2458,-0.2458,-0.2457,-0.2423,-0.2339,-0.2339,-0.2246,-0.2305,0,0,0,0,0,0,0,0,0,0,-0.2384,-0.2422,-0.2458,-0.2457,-0.2423,-0.234,-0.2339,-0.2307,-0.2301,-0.229,0,-0.2282,0,-0.2262,-0.224,-0.224,0,0,0,-0.2417,-0.2428,-0.2397,-0.2457,-0.2422,-0.234,-0.2375,-0.2304,-0.2297,-0.2282,-0.2281,-0.2277,-0.2261,-0.2239,-0.2239,-0.2197,-0.2197,0,0,-0.2422,-0.2448,-0.2402,-0.2393,-0.2407,-0.2378,-0.2373,-0.2299,-0.23,-0.228,-0.2275,-0.2259,-0.2239,-0.2238,-0.2196,-0.2197,0,0,0,-0.2439,-0.2451,-0.2422,-0.2398,-0.2381,-0.2376,-0.237,-0.2303,-0.2291,-0.2273,-0.2258,-0.2238,-0.2237,-0.2196,-0.2197,-0.2227,0,0,0,-0.2442,-0.2461,-0.2425,-0.244,-0.2383,-0.2341,-0.2376,-0.2297,-0.2287,-0.2259,-0.2238,-0.2237,-0.2196,-0.2196,-0.2226,-0.2237,0,0,0,-0.2461,-0.2463,-0.2454,-0.2441,-0.2406,-0.2342,-0.2326,-0.2294,-0.2278,-0.224,-0.2237,-0.2196,-0.2196,-0.2225,-0.2235,-0.2234,0,0,0,-0.2489,-0.2482,-0.2455,-0.2441,-0.2407,-0.2361,-0.2326,-0.229,-0.226,-0.2238,-0.2196,-0.2197,-0.2224,-0.2234,-0.2233,-0.2238,-0.2243,0,0,-0.2494,-0.2483,-0.2473,-0.2447,-0.2412,-0.2371,-0.2341,-0.2289,-0.2261,-0.222,-0.2218,-0.2226,-0.2235,-0.2234,-0.2256,-0.226,0,0,0,-0.2484,-0.2477,-0.2462,-0.2435,-0.2395,-0.2362,-0.2312,-0.2293,-0.2257,-0.2245,-0.2224,-0.2228,-0.2227,-0.2228,-0.2231,-0.2228,-0.2198,-0.2198,-0.2198,-0.253,-0.2495,-0.2476,-0.2432,-0.2406,-0.2354,-0.2331,-0.2296,-0.2268,-0.2264,-0.2252,-0.227,-0.2272,-0.2274,-0.2272,-0.2251,-0.2251,-0.2251,-0.2251,-0.2536,-0.2521,-0.2484,-0.2453,-0.2417,-0.239,-0.2341,-0.2322,-0.2292,-0.2276,-0.2273,-0.2259,-0.2279,-0.2276,-0.2253,-0.2253,-0.2252,-0.2252,-0.2252,-0.2563,-0.255,-0.2526,-0.2484,-0.2455,-0.241,-0.2383,-0.2351,-0.232,-0.2316,-0.2301,-0.23,-0.2296,-0.2311,-0.2311,-0.2311,-0.2311,-0.2311,-0.2311,-0.2601,-0.2573,-0.2555,-0.2512,-0.2491,-0.2458,-0.2407,-0.2385,-0.2352,-0.2331,-0.2331,-0.2304,-0.2287,-0.2285,-0.2312,-0.2312,-0.2312,-0.2312,-0.2312,-0.2621,-0.2611,-0.2583,-0.2562,-0.2509,-0.2483,-0.2442,-0.24,-0.2377,-0.2365,-0.2339,-0.2332,-0.2318,-0.2316,-0.2313,-0.2346,-0.2346,-0.2346,-0.2346,-0.2645,-0.2635,-0.2599,-0.2567,-0.2532,-0.2491,-0.2461,-0.2421,-0.2378,-0.2362,-0.2352,-0.2346,-0.2344,-0.2332,-0.2329,-0.2326,-0.2361,-0.2361,-0.2361,-0.2657,-0.2642,-0.2622,-0.258,-0.2536,-0.25,-0.2471,-0.2436,-0.2385,-0.2361,-0.2349,-0.2348,-0.2337,-0.2335,-0.2313,-0.2309,-0.2303,0,0]},{"header":{"parameterUnit":"m.s-1","parameterCategory":1,"la1":30.2992,"la2":30.254,"lo1":-89.0895,"lo2":-89.0443,"dy":0.0025,"dx":0.0025,"nx":19,"ny":19,"refTime":"2026-03-09T09:00:00:Z","depth":0,"parameterNumber":3,"parameterNumberName":"V-component_of_WINDS"},"data":[0,0,0,3.2608,3.2608,3.2618,3.2618,3.2642,3.2642,0,0,0,0,0,0,0,0,0,0,0,3.2611,3.2611,3.2608,3.2608,3.2618,3.2618,3.2642,3.2642,0,0,0,0,0,0,0,0,0,0,0,3.2611,3.2611,3.2612,3.2608,3.2618,3.2618,3.2642,3.2631,0,0,0,0,0,0,0,0,0,0,3.2619,3.2627,3.2611,3.2612,3.2609,3.2618,3.2618,3.263,3.2631,3.2642,0,3.2653,0,3.2648,3.2645,3.2645,0,0,0,3.2604,3.2626,3.2624,3.2612,3.2609,3.2618,3.2613,3.2631,3.2632,3.2644,3.2653,3.2653,3.2648,3.2645,3.2645,3.2722,3.2722,0,0,3.2603,3.2616,3.2623,3.2625,3.2624,3.2612,3.2613,3.2631,3.2642,3.2653,3.2654,3.2649,3.2645,3.2645,3.2721,3.2722,0,0,0,3.2605,3.2616,3.2612,3.2624,3.2625,3.2613,3.2613,3.2641,3.2639,3.2654,3.2649,3.2645,3.2646,3.2721,3.2721,3.2763,0,0,0,3.2604,3.2616,3.2612,3.262,3.2625,3.2633,3.2623,3.2638,3.2639,3.2649,3.2645,3.2646,3.272,3.2721,3.276,3.278,0,0,0,3.2608,3.2617,3.262,3.2621,3.2626,3.2633,3.2631,3.2638,3.2637,3.2645,3.2646,3.2719,3.2721,3.2758,3.2777,3.2806,0,0,0,3.2616,3.2656,3.2621,3.2664,3.2626,3.2658,3.2631,3.2654,3.2666,3.2645,3.272,3.2721,3.2757,3.2774,3.2803,3.2833,3.2847,0,0,3.2673,3.2663,3.2687,3.2657,3.2698,3.2655,3.2703,3.2701,3.269,3.2712,3.2714,3.2761,3.2776,3.2805,3.2914,3.2925,0,0,0,3.271,3.2727,3.2736,3.2748,3.2748,3.275,3.274,3.274,3.2758,3.2704,3.2778,3.2787,3.2803,3.2817,3.2826,3.2841,3.2728,3.2728,3.2728,3.2809,3.2794,3.2833,3.2819,3.2832,3.2822,3.283,3.2829,3.2808,3.2826,3.2833,3.2901,3.2918,3.2924,3.2939,3.2846,3.2847,3.2847,3.2847,3.2893,3.2916,3.289,3.2919,3.2903,3.2927,3.292,3.2905,3.2926,3.2894,3.2908,3.2876,3.2937,3.2949,3.285,3.2849,3.2849,3.2849,3.2848,3.2957,3.2966,3.2965,3.2982,3.2998,3.2982,3.3004,3.2988,3.2973,3.2986,3.2993,3.2992,3.2991,3.299,3.2991,3.2991,3.2991,3.2991,3.2991,3.3025,3.3023,3.3043,3.3048,3.3055,3.3062,3.3053,3.3059,3.3062,3.3049,3.3049,3.3029,3.2945,3.2925,3.2995,3.2994,3.2994,3.2994,3.2993,3.3118,3.3095,3.3126,3.3133,3.3139,3.3156,3.3135,3.315,3.3153,3.3165,3.3141,3.3081,3.307,3.3063,3.3046,3.3143,3.3143,3.3143,3.3143,3.3174,3.3166,3.3196,3.3209,3.3219,3.3204,3.3242,3.3236,3.3227,3.3228,3.3211,3.3188,3.3181,3.3174,3.3164,3.3149,3.327,3.327,3.327,3.3231,3.3224,3.3259,3.325,3.3253,3.3257,3.3293,3.3309,3.3293,3.3275,3.3229,3.3224,3.3186,3.3174,3.3155,3.314,3.3111,0,0]}]]